Time,TemperatureF,DewpointF,PressureIn,WindDirection,WindDirectionDegrees,WindSpeedMPH,WindSpeedGustMPH,Humidity,HourlyPrecipIn,Conditions,Clouds,dailyrainin,SoftwareType,DateUTC
2013-06-05 00:01:00,51.0,48.7,30.15,NNW,346,0.0,0.0,92,0.00,,,0.00,WUHU216DAVISVP2,2013-06-05 04:01:00,
2013-06-05 00:02:00,51.0,48.7,30.15,NNW,346,0.0,0.0,92,0.00,,,0.00,WUHU216DAVISVP2,2013-06-05 04:02:00,
2013-06-05 00:07:00,50.8,48.5,30.15,NNW,346,0.0,0.0,92,0.00,,,0.00,WUHU216DAVISVP2,2013-06-05 04:07:00,
2013-06-05 00:12:00,50.6,48.3,30.15,NNW,346,0.0,0.0,92,0.00,,,0.00,WUHU216DAVISVP2,2013-06-05 04:12:00,
2013-06-05 00:17:00,50.5,48.5,30.15,NNW,346,0.0,0.0,93,0.00,,,0.00,WUHU216DAVISVP2,2013-06-05 04:17:00,
2013-06-05 00:22:00,50.4,48.4,30.14,NNW,346,0.0,0.0,93,0.00,,,0.00,WUHU216DAVISVP2,2013-06-05 04:22:00,
2013-06-05 00:27:00,50.2,48.3,30.14,NNW,346,0.0,0.0,93,0.00,,,0.00,WUHU216DAVISVP2,2013-06-05 04:27:00,
2013-06-05 00:32:00,50.1,48.2,30.14,NNW,346,0.0,0.0,93,0.00,,,0.00,WUHU216DAVISVP2,2013-06-05 04:32:00,
2013-06-05 00:37:00,49.9,48.0,30.14,NNW,346,0.0,0.0,93,0.00,,,0.00,WUHU216DAVISVP2,2013-06-05 04:37:00,
2013-06-05 00:42:00,49.7,47.7,30.14,NNW,346,0.0,0.0,93,0.00,,,0.00,WUHU216DAVISVP2,2013-06-05 04:42:00,
2013-06-05 00:47:00,49.7,48.0,30.14,NNW,346,0.0,0.0,94,0.00,,,0.00,WUHU216DAVISVP2,2013-06-05 04:47:00,
2013-06-05 00:52:00,49.6,47.9,30.14,NNW,346,0.0,0.0,94,0.00,,,0.00,WUHU216DAVISVP2,2013-06-05 04:52:00,
2013-06-05 00:57:00,49.5,47.8,30.14,NNW,346,0.0,0.0,94,0.00,,,0.00,WUHU216DAVISVP2,2013-06-05 04:57:00,
2013-06-05 01:02:00,49.5,47.8,30.14,NNW,346,0.0,0.0,94,0.00,,,0.00,WUHU216DAVISVP2,2013-06-05 05:02:00,
2013-06-05 01:07:00,49.3,47.6,30.14,NNW,346,0.0,0.0,94,0.00,,,0.00,WUHU216DAVISVP2,2013-06-05 05:07:00,
2013-06-05 01:12:00,49.2,47.5,30.14,NNW,346,0.0,0.0,94,0.00,,,0.00,WUHU216DAVISVP2,2013-06-05 05:12:00,
2013-06-05 01:17:00,49.1,47.4,30.14,NNW,346,0.0,0.0,94,0.00,,,0.00,WUHU216DAVISVP2,2013-06-05 05:17:00,
2013-06-05 01:22:00,49.0,47.3,30.14,NNW,346,0.0,0.0,94,0.00,,,0.00,WUHU216DAVISVP2,2013-06-05 05:22:00,
2013-06-05 01:27:00,48.9,47.2,30.14,NNW,346,0.0,0.0,94,0.00,,,0.00,WUHU216DAVISVP2,2013-06-05 05:27:00,
2013-06-05 01:32:00,48.8,47.1,30.14,NNW,346,0.0,0.0,94,0.00,,,0.00,WUHU216DAVISVP2,2013-06-05 05:32:00,
2013-06-05 01:37:00,48.7,47.0,30.13,NNW,346,0.0,0.0,94,0.00,,,0.00,WUHU216DAVISVP2,2013-06-05 05:37:00,
2013-06-05 01:42:00,48.5,46.8,30.13,NNW,346,0.0,0.0,94,0.00,,,0.00,WUHU216DAVISVP2,2013-06-05 05:42:00,
2013-06-05 01:47:00,48.5,47.1,30.13,NNW,346,0.0,0.0,95,0.00,,,0.00,WUHU216DAVISVP2,2013-06-05 05:47:00,
2013-06-05 01:52:00,48.4,47.0,30.13,NNW,346,0.0,0.0,95,0.00,,,0.00,WUHU216DAVISVP2,2013-06-05 05:52:00,
2013-06-05 01:57:00,48.3,46.9,30.13,NNW,346,0.0,0.0,95,0.00,,,0.00,WUHU216DAVISVP2,2013-06-05 05:57:00,
2013-06-05 02:02:00,48.2,46.8,30.13,NNW,346,0.0,0.0,95,0.00,,,0.00,WUHU216DAVISVP2,2013-06-05 06:02:00,
2013-06-05 02:07:00,48.3,46.9,30.13,NNW,346,0.0,0.0,95,0.00,,,0.00,WUHU216DAVISVP2,2013-06-05 06:07:00,
2013-06-05 02:12:00,48.4,47.3,30.13,NNW,346,0.0,0.0,96,0.00,,,0.00,WUHU216DAVISVP2,2013-06-05 06:12:00,
2013-06-05 02:17:00,48.3,46.9,30.13,NNW,346,0.0,0.0,95,0.00,,,0.00,WUHU216DAVISVP2,2013-06-05 06:17:00,
2013-06-05 02:22:00,48.2,46.8,30.13,NNW,346,0.0,0.0,95,0.00,,,0.00,WUHU216DAVISVP2,2013-06-05 06:22:00,
2013-06-05 02:27:00,48.0,46.6,30.13,NNW,346,0.0,0.0,95,0.00,,,0.00,WUHU216DAVISVP2,2013-06-05 06:27:00,
2013-06-05 02:32:00,47.8,46.4,30.12,NNW,346,0.0,0.0,95,0.00,,,0.00,WUHU216DAVISVP2,2013-06-05 06:32:00,
2013-06-05 02:37:00,47.6,46.2,30.13,NNW,346,0.0,0.0,95,0.00,,,0.00,WUHU216DAVISVP2,2013-06-05 06:37:00,
2013-06-05 02:42:00,47.5,46.1,30.12,NNW,346,0.0,0.0,95,0.00,,,0.00,WUHU216DAVISVP2,2013-06-05 06:42:00,
2013-06-05 02:47:00,47.4,46.0,30.12,NNW,346,0.0,0.0,95,0.00,,,0.00,WUHU216DAVISVP2,2013-06-05 06:47:00,
2013-06-05 02:52:00,47.3,45.9,30.12,NNW,346,0.0,0.0,95,0.00,,,0.00,WUHU216DAVISVP2,2013-06-05 06:52:00,
2013-06-05 02:57:00,47.2,45.8,30.12,NNW,346,0.0,0.0,95,0.00,,,0.00,WUHU216DAVISVP2,2013-06-05 06:57:00,
2013-06-05 03:02:00,47.1,45.7,30.12,NNW,346,0.0,0.0,95,0.00,,,0.00,WUHU216DAVISVP2,2013-06-05 07:02:00,
2013-06-05 03:07:00,47.2,46.1,30.12,NNW,346,0.0,0.0,96,0.00,,,0.00,WUHU216DAVISVP2,2013-06-05 07:07:00,
2013-06-05 03:12:00,47.3,46.2,30.12,NNW,346,0.0,0.0,96,0.00,,,0.00,WUHU216DAVISVP2,2013-06-05 07:12:00,
2013-06-05 03:17:00,47.4,46.3,30.12,NNW,346,0.0,0.0,96,0.00,,,0.00,WUHU216DAVISVP2,2013-06-05 07:17:00,
2013-06-05 03:22:00,47.4,46.3,30.12,NNW,346,0.0,0.0,96,0.00,,,0.00,WUHU216DAVISVP2,2013-06-05 07:22:00,
2013-06-05 03:27:00,47.4,46.3,30.12,NNW,346,0.0,0.0,96,0.00,,,0.00,WUHU216DAVISVP2,2013-06-05 07:27:00,
2013-06-05 03:32:00,47.4,46.3,30.12,NNW,346,0.0,0.0,96,0.00,,,0.00,WUHU216DAVISVP2,2013-06-05 07:32:00,
2013-06-05 03:37:00,47.3,46.2,30.12,NNW,346,0.0,0.0,96,0.00,,,0.00,WUHU216DAVISVP2,2013-06-05 07:37:00,
2013-06-05 03:42:00,47.3,46.2,30.12,NNW,346,0.0,0.0,96,0.00,,,0.00,WUHU216DAVISVP2,2013-06-05 07:42:00,
2013-06-05 03:47:00,47.2,46.1,30.12,NNW,346,0.0,0.0,96,0.00,,,0.00,WUHU216DAVISVP2,2013-06-05 07:47:00,
2013-06-05 03:52:00,47.0,45.9,30.12,NNW,346,0.0,0.0,96,0.00,,,0.00,WUHU216DAVISVP2,2013-06-05 07:52:00,
2013-06-05 03:57:00,47.0,45.9,30.12,NNW,346,0.0,0.0,96,0.00,,,0.00,WUHU216DAVISVP2,2013-06-05 07:57:00,
2013-06-05 04:02:00,46.9,45.8,30.12,NNW,346,0.0,0.0,96,0.00,,,0.00,WUHU216DAVISVP2,2013-06-05 08:02:00,
2013-06-05 04:07:00,46.9,45.8,30.13,NNW,346,0.0,0.0,96,0.00,,,0.00,WUHU216DAVISVP2,2013-06-05 08:07:00,
2013-06-05 04:12:00,46.8,45.7,30.13,NNW,346,0.0,1.0,96,0.00,,,0.00,WUHU216DAVISVP2,2013-06-05 08:12:00,
2013-06-05 04:17:00,46.7,45.6,30.13,NNW,346,0.0,1.0,96,0.00,,,0.00,WUHU216DAVISVP2,2013-06-05 08:17:00,
2013-06-05 04:22:00,46.6,45.5,30.13,NNW,346,0.0,1.0,96,0.00,,,0.00,WUHU216DAVISVP2,2013-06-05 08:22:00,
2013-06-05 04:27:00,46.6,45.5,30.13,NNW,346,0.0,1.0,96,0.00,,,0.00,WUHU216DAVISVP2,2013-06-05 08:27:00,
2013-06-05 04:32:00,46.5,45.4,30.13,NNW,346,0.0,1.0,96,0.00,,,0.00,WUHU216DAVISVP2,2013-06-05 08:32:00,
2013-06-05 04:37:00,46.5,45.7,30.13,NNW,346,0.0,0.0,97,0.00,,,0.00,WUHU216DAVISVP2,2013-06-05 08:37:00,
2013-06-05 04:42:00,46.5,45.7,30.13,NNW,346,0.0,0.0,97,0.00,,,0.00,WUHU216DAVISVP2,2013-06-05 08:42:00,
2013-06-05 04:47:00,46.5,45.7,30.13,NNW,346,0.0,0.0,97,0.00,,,0.00,WUHU216DAVISVP2,2013-06-05 08:47:00,
2013-06-05 04:52:00,46.5,45.7,30.13,NNW,346,0.0,1.0,97,0.00,,,0.00,WUHU216DAVISVP2,2013-06-05 08:52:00,
2013-06-05 04:57:00,46.6,45.8,30.13,NNW,346,0.0,1.0,97,0.00,,,0.00,WUHU216DAVISVP2,2013-06-05 08:57:00,
2013-06-05 05:02:00,46.4,45.6,30.13,NNW,346,0.0,1.0,97,0.00,,,0.00,WUHU216DAVISVP2,2013-06-05 09:02:00,
2013-06-05 05:07:00,46.4,45.6,30.13,NNW,346,0.0,1.0,97,0.00,,,0.00,WUHU216DAVISVP2,2013-06-05 09:07:00,
2013-06-05 05:12:00,46.4,45.6,30.13,NNW,346,0.0,1.0,97,0.00,,,0.00,WUHU216DAVISVP2,2013-06-05 09:12:00,
2013-06-05 05:17:00,46.3,45.5,30.13,NNW,346,0.0,1.0,97,0.00,,,0.00,WUHU216DAVISVP2,2013-06-05 09:17:00,
2013-06-05 05:22:00,46.2,45.4,30.13,NNW,346,0.0,1.0,97,0.00,,,0.00,WUHU216DAVISVP2,2013-06-05 09:22:00,
2013-06-05 05:27:00,46.0,45.2,30.13,NNW,346,0.0,1.0,97,0.00,,,0.00,WUHU216DAVISVP2,2013-06-05 09:27:00,
2013-06-05 05:32:00,45.8,44.7,30.13,NNW,346,0.0,1.0,96,0.00,,,0.00,WUHU216DAVISVP2,2013-06-05 09:32:00,
2013-06-05 05:37:00,45.7,44.6,30.13,NNW,346,0.0,1.0,96,0.00,,,0.00,WUHU216DAVISVP2,2013-06-05 09:37:00,
2013-06-05 05:42:00,45.7,44.9,30.14,NNW,346,0.0,1.0,97,0.00,,,0.00,WUHU216DAVISVP2,2013-06-05 09:42:00,
2013-06-05 05:47:00,45.7,44.9,30.14,NNW,340,0.0,1.0,97,0.00,,,0.00,WUHU216DAVISVP2,2013-06-05 09:47:00,
2013-06-05 05:52:00,45.7,44.9,30.14,NNW,340,0.0,1.0,97,0.00,,,0.00,WUHU216DAVISVP2,2013-06-05 09:52:00,
2013-06-05 05:57:00,45.8,45.0,30.14,NNW,340,0.0,1.0,97,0.00,,,0.00,WUHU216DAVISVP2,2013-06-05 09:57:00,
2013-06-05 06:02:00,46.0,45.2,30.14,NNW,340,0.0,1.0,97,0.00,,,0.00,WUHU216DAVISVP2,2013-06-05 10:02:00,
2013-06-05 06:07:00,46.1,45.3,30.14,NNW,340,0.0,1.0,97,0.00,,,0.00,WUHU216DAVISVP2,2013-06-05 10:07:00,
2013-06-05 06:12:00,46.1,45.3,30.14,NNW,340,0.0,1.0,97,0.00,,,0.00,WUHU216DAVISVP2,2013-06-05 10:12:00,
2013-06-05 06:17:00,46.0,45.2,30.14,NNW,340,0.0,1.0,97,0.00,,,0.00,WUHU216DAVISVP2,2013-06-05 10:17:00,
2013-06-05 06:22:00,46.0,45.2,30.14,NNW,340,0.0,1.0,97,0.00,,,0.00,WUHU216DAVISVP2,2013-06-05 10:22:00,
2013-06-05 06:27:00,46.1,45.3,30.14,NNW,340,0.0,1.0,97,0.00,,,0.00,WUHU216DAVISVP2,2013-06-05 10:27:00,
2013-06-05 06:32:00,46.0,45.2,30.14,NNW,341,0.0,3.0,97,0.00,,,0.00,WUHU216DAVISVP2,2013-06-05 10:32:00,
2013-06-05 06:37:00,46.1,45.3,30.14,NNW,342,1.0,3.0,97,0.00,,,0.00,WUHU216DAVISVP2,2013-06-05 10:37:00,
2013-06-05 06:42:00,46.1,45.3,30.15,NNW,341,1.0,3.0,97,0.00,,,0.00,WUHU216DAVISVP2,2013-06-05 10:42:00,
2013-06-05 06:47:00,46.2,45.4,30.15,NNW,341,0.0,3.0,97,0.00,,,0.00,WUHU216DAVISVP2,2013-06-05 10:47:00,
2013-06-05 06:52:00,46.3,45.7,30.15,NNW,341,0.0,1.0,98,0.00,,,0.00,WUHU216DAVISVP2,2013-06-05 10:52:00,
2013-06-05 06:57:00,46.5,45.9,30.15,NNW,341,0.0,1.0,98,0.00,,,0.00,WUHU216DAVISVP2,2013-06-05 10:57:00,
2013-06-05 07:02:00,46.8,46.2,30.15,NNW,341,0.0,1.0,98,0.00,,,0.00,WUHU216DAVISVP2,2013-06-05 11:02:00,
2013-06-05 07:07:00,47.0,46.5,30.15,NNW,342,0.0,1.0,98,0.00,,,0.00,WUHU216DAVISVP2,2013-06-05 11:07:00,
2013-06-05 07:12:00,47.3,46.8,30.15,NNW,341,0.0,1.0,98,0.00,,,0.00,WUHU216DAVISVP2,2013-06-05 11:12:00,
2013-06-05 07:17:00,47.4,46.9,30.15,NNW,342,0.0,1.0,98,0.00,,,0.00,WUHU216DAVISVP2,2013-06-05 11:17:00,
2013-06-05 07:22:00,47.5,47.0,30.16,NNW,342,0.0,1.0,98,0.00,,,0.00,WUHU216DAVISVP2,2013-06-05 11:22:00,
2013-06-05 07:27:00,47.6,47.1,30.16,NNW,341,0.0,1.0,98,0.00,,,0.00,WUHU216DAVISVP2,2013-06-05 11:27:00,
2013-06-05 07:32:00,47.9,47.4,30.16,NNW,342,0.0,1.0,98,0.00,,,0.00,WUHU216DAVISVP2,2013-06-05 11:32:00,
2013-06-05 07:37:00,48.2,47.7,30.16,NNW,342,0.0,1.0,98,0.00,,,0.00,WUHU216DAVISVP2,2013-06-05 11:37:00,
2013-06-05 07:42:00,48.5,48.0,30.16,NNW,348,0.0,1.0,98,0.00,,,0.00,WUHU216DAVISVP2,2013-06-05 11:42:00,
2013-06-05 07:47:00,48.7,48.2,30.16,North,4,1.0,2.0,98,0.00,,,0.00,WUHU216DAVISVP2,2013-06-05 11:47:00,
2013-06-05 07:52:00,48.9,48.4,30.16,NNE,27,0.0,2.0,98,0.00,,,0.00,WUHU216DAVISVP2,2013-06-05 11:52:00,
2013-06-05 07:57:00,49.4,48.9,30.15,NNE,27,0.0,2.0,98,0.00,,,0.00,WUHU216DAVISVP2,2013-06-05 11:57:00,
2013-06-05 08:02:00,49.6,49.1,30.15,NNE,27,0.0,2.0,98,0.00,,,0.00,WUHU216DAVISVP2,2013-06-05 12:02:00,
2013-06-05 08:07:00,50.0,49.5,30.15,NE,35,0.0,2.0,98,0.00,,,0.00,WUHU216DAVISVP2,2013-06-05 12:07:00,
2013-06-05 08:12:00,50.6,49.8,30.15,NE,38,0.0,2.0,97,0.00,,,0.00,WUHU216DAVISVP2,2013-06-05 12:12:00,
2013-06-05 08:17:00,51.1,50.3,30.15,ENE,57,0.0,2.0,97,0.00,,,0.00,WUHU216DAVISVP2,2013-06-05 12:17:00,
2013-06-05 08:22:00,51.6,50.5,30.14,ENE,57,0.0,2.0,96,0.00,,,0.00,WUHU216DAVISVP2,2013-06-05 12:22:00,
2013-06-05 08:27:00,52.1,50.7,30.14,ENE,57,0.0,2.0,95,0.00,,,0.00,WUHU216DAVISVP2,2013-06-05 12:27:00,
2013-06-05 08:32:00,52.4,50.4,30.14,ENE,59,0.0,2.0,93,0.00,,,0.00,WUHU216DAVISVP2,2013-06-05 12:32:00,
2013-06-05 08:37:00,52.9,50.9,30.14,ENE,71,0.0,2.0,93,0.00,,,0.00,WUHU216DAVISVP2,2013-06-05 12:37:00,
2013-06-05 08:42:00,53.6,51.3,30.14,East,96,0.0,2.0,92,0.00,,,0.00,WUHU216DAVISVP2,2013-06-05 12:42:00,
2013-06-05 08:47:00,54.1,51.5,30.14,East,99,0.0,2.0,91,0.00,,,0.00,WUHU216DAVISVP2,2013-06-05 12:47:00,
2013-06-05 08:52:00,54.7,51.8,30.14,East,99,0.0,2.0,90,0.00,,,0.00,WUHU216DAVISVP2,2013-06-05 12:52:00,
2013-06-05 08:57:00,55.1,51.6,30.14,East,100,0.0,2.0,88,0.00,,,0.00,WUHU216DAVISVP2,2013-06-05 12:57:00,
2013-06-05 09:02:00,55.7,51.9,30.14,East,100,0.0,2.0,87,0.00,,,0.00,WUHU216DAVISVP2,2013-06-05 13:02:00,
2013-06-05 09:07:00,55.9,51.8,30.14,East,100,0.0,1.0,86,0.00,,,0.00,WUHU216DAVISVP2,2013-06-05 13:07:00,
2013-06-05 09:12:00,56.2,51.7,30.13,East,98,0.0,2.0,85,0.00,,,0.00,WUHU216DAVISVP2,2013-06-05 13:12:00,
2013-06-05 09:17:00,56.7,51.9,30.13,East,98,0.0,2.0,84,0.00,,,0.00,WUHU216DAVISVP2,2013-06-05 13:17:00,
2013-06-05 09:22:00,57.2,53.0,30.13,East,98,1.0,2.0,86,0.00,,,0.00,WUHU216DAVISVP2,2013-06-05 13:22:00,
2013-06-05 09:27:00,57.8,53.0,30.12,East,98,0.0,2.0,84,0.00,,,0.00,WUHU216DAVISVP2,2013-06-05 13:27:00,
2013-06-05 09:32:00,58.3,52.9,30.12,East,98,0.0,2.0,82,0.00,,,0.00,WUHU216DAVISVP2,2013-06-05 13:32:00,
2013-06-05 09:37:00,58.9,53.4,30.12,East,98,0.0,2.0,82,0.00,,,0.00,WUHU216DAVISVP2,2013-06-05 13:37:00,
2013-06-05 09:42:00,59.6,54.8,30.12,East,98,0.0,2.0,84,0.00,,,0.00,WUHU216DAVISVP2,2013-06-05 13:42:00,
2013-06-05 09:47:00,60.3,53.8,30.11,ESE,104,1.0,2.0,79,0.00,,,0.00,WUHU216DAVISVP2,2013-06-05 13:47:00,
2013-06-05 09:52:00,60.9,54.4,30.11,ESE,109,0.0,2.0,79,0.00,,,0.00,WUHU216DAVISVP2,2013-06-05 13:52:00,
2013-06-05 09:57:00,61.4,54.2,30.11,ESE,109,0.0,2.0,77,0.00,,,0.00,WUHU216DAVISVP2,2013-06-05 13:57:00,
2013-06-05 10:02:00,61.8,54.6,30.11,ESE,108,0.0,2.0,77,0.00,,,0.00,WUHU216DAVISVP2,2013-06-05 14:02:00,
2013-06-05 10:07:00,62.3,55.4,30.10,ESE,106,0.0,2.0,78,0.00,,,0.00,WUHU216DAVISVP2,2013-06-05 14:07:00,
2013-06-05 10:12:00,63.0,55.1,30.10,ESE,105,0.0,2.0,75,0.00,,,0.00,WUHU216DAVISVP2,2013-06-05 14:12:00,
2013-06-05 10:17:00,63.4,55.0,30.10,NE,39,1.0,2.0,74,0.00,,,0.00,WUHU216DAVISVP2,2013-06-05 14:17:00,
2013-06-05 10:22:00,64.1,55.3,30.09,NNE,12,0.0,2.0,73,0.00,,,0.00,WUHU216DAVISVP2,2013-06-05 14:22:00,
2013-06-05 10:27:00,64.7,55.5,30.09,NNE,12,0.0,2.0,72,0.00,,,0.00,WUHU216DAVISVP2,2013-06-05 14:27:00,
2013-06-05 10:32:00,65.3,56.2,30.09,NW,314,0.0,2.0,72,0.00,,,0.00,WUHU216DAVISVP2,2013-06-05 14:32:00,
2013-06-05 10:37:00,65.9,55.6,30.09,NW,309,1.0,2.0,69,0.00,,,0.00,WUHU216DAVISVP2,2013-06-05 14:37:00,
2013-06-05 10:42:00,66.5,56.2,30.09,NW,304,2.0,3.0,69,0.00,,,0.00,WUHU216DAVISVP2,2013-06-05 14:42:00,
2013-06-05 10:47:00,67.1,56.0,30.08,WNW,303,1.0,3.0,67,0.00,,,0.00,WUHU216DAVISVP2,2013-06-05 14:47:00,
2013-06-05 10:52:00,67.6,56.0,30.08,WNW,300,1.0,3.0,66,0.00,,,0.00,WUHU216DAVISVP2,2013-06-05 14:52:00,
2013-06-05 10:57:00,68.0,56.0,30.08,West,262,2.0,3.0,65,0.00,,,0.00,WUHU216DAVISVP2,2013-06-05 14:57:00,
2013-06-05 11:02:00,68.6,56.5,30.08,WNW,301,3.0,4.0,65,0.00,,,0.00,WUHU216DAVISVP2,2013-06-05 15:02:00,
2013-06-05 11:08:00,69.2,58.0,30.08,NW,318,3.0,4.0,67,0.00,,,0.00,WUHU216DAVISVP2,2013-06-05 15:08:00,
2013-06-05 11:13:00,69.6,56.4,30.07,NW,318,1.0,4.0,63,0.00,,,0.00,WUHU216DAVISVP2,2013-06-05 15:13:00,
2013-06-05 11:18:00,70.0,58.1,30.07,NW,318,0.0,4.0,66,0.00,,,0.00,WUHU216DAVISVP2,2013-06-05 15:18:00,
2013-06-05 11:23:00,70.4,56.8,30.06,NW,317,0.0,4.0,62,0.00,,,0.00,WUHU216DAVISVP2,2013-06-05 15:23:00,
2013-06-05 11:28:00,70.9,58.1,30.06,SSW,200,1.0,4.0,64,0.00,,,0.00,WUHU216DAVISVP2,2013-06-05 15:28:00,
2013-06-05 11:33:00,71.3,57.3,30.06,NE,50,2.0,4.0,61,0.00,,,0.00,WUHU216DAVISVP2,2013-06-05 15:33:00,
2013-06-05 11:38:00,71.7,59.1,30.06,North,349,1.0,4.0,64,0.00,,,0.00,WUHU216DAVISVP2,2013-06-05 15:38:00,
2013-06-05 11:43:00,72.4,59.3,30.06,North,10,1.0,4.0,63,0.00,,,0.00,WUHU216DAVISVP2,2013-06-05 15:43:00,
2013-06-05 11:48:00,73.1,60.0,30.06,ESE,110,0.0,3.0,63,0.00,,,0.00,WUHU216DAVISVP2,2013-06-05 15:48:00,
2013-06-05 11:53:00,73.6,59.1,30.06,SE,146,1.0,2.0,60,0.00,,,0.00,WUHU216DAVISVP2,2013-06-05 15:53:00,
2013-06-05 11:58:00,74.1,59.0,30.06,SW,220,1.0,6.0,59,0.00,,,0.00,WUHU216DAVISVP2,2013-06-05 15:58:00,
2013-06-05 12:03:00,74.8,60.2,30.06,SSE,163,0.0,6.0,60,0.00,,,0.00,WUHU216DAVISVP2,2013-06-05 16:03:00,
2013-06-05 12:08:00,75.4,59.3,30.06,SSW,201,3.0,6.0,57,0.00,,,0.00,WUHU216DAVISVP2,2013-06-05 16:08:00,
2013-06-05 12:13:00,75.5,59.9,30.06,SSW,203,1.0,6.0,58,0.00,,,0.00,WUHU216DAVISVP2,2013-06-05 16:13:00,
2013-06-05 12:18:00,75.7,59.1,30.06,SW,218,1.0,5.0,56,0.00,,,0.00,WUHU216DAVISVP2,2013-06-05 16:18:00,
2013-06-05 12:23:00,76.0,59.3,30.05,WNW,295,0.0,5.0,56,0.00,,,0.00,WUHU216DAVISVP2,2013-06-05 16:23:00,
2013-06-05 12:28:00,76.4,60.7,30.05,SSW,206,3.0,6.0,58,0.00,,,0.00,WUHU216DAVISVP2,2013-06-05 16:28:00,
2013-06-05 12:33:00,76.7,61.0,30.05,ESE,119,0.0,6.0,58,0.00,,,0.00,WUHU216DAVISVP2,2013-06-05 16:33:00,
2013-06-05 12:38:00,76.8,59.6,30.04,NNW,335,2.0,6.0,55,0.00,,,0.00,WUHU216DAVISVP2,2013-06-05 16:38:00,
2013-06-05 12:43:00,77.3,60.0,30.04,West,260,4.0,6.0,55,0.00,,,0.00,WUHU216DAVISVP2,2013-06-05 16:43:00,
2013-06-05 12:48:00,77.4,59.6,30.03,WNW,289,2.0,5.0,54,0.00,,,0.00,WUHU216DAVISVP2,2013-06-05 16:48:00,
2013-06-05 12:53:00,77.5,61.8,30.03,ESE,105,2.0,6.0,58,0.00,,,0.00,WUHU216DAVISVP2,2013-06-05 16:53:00,
2013-06-05 12:58:00,77.4,61.2,30.02,ESE,116,0.0,6.0,57,0.00,,,0.00,WUHU216DAVISVP2,2013-06-05 16:58:00,
2013-06-05 13:03:00,77.8,61.0,30.01,SSE,153,1.0,6.0,56,0.00,,,0.00,WUHU216DAVISVP2,2013-06-05 17:03:00,
2013-06-05 13:08:00,78.1,62.3,30.01,SSW,213,3.0,6.0,58,0.00,,,0.00,WUHU216DAVISVP2,2013-06-05 17:08:00,
2013-06-05 13:13:00,78.7,61.4,30.00,South,176,4.0,8.0,55,0.00,,,0.00,WUHU216DAVISVP2,2013-06-05 17:13:00,
2013-06-05 13:18:00,79.4,60.9,30.00,East,96,0.0,8.0,53,0.00,,,0.00,WUHU216DAVISVP2,2013-06-05 17:18:00,
2013-06-05 13:23:00,79.4,60.9,30.00,East,91,2.0,8.0,53,0.00,,,0.00,WUHU216DAVISVP2,2013-06-05 17:23:00,
2013-06-05 13:28:00,79.4,63.6,30.00,South,169,0.0,8.0,58,0.00,,,0.00,WUHU216DAVISVP2,2013-06-05 17:28:00,
2013-06-05 13:33:00,79.4,61.5,30.00,SE,144,2.0,5.0,54,0.00,,,0.00,WUHU216DAVISVP2,2013-06-05 17:33:00,
2013-06-05 13:38:00,79.8,61.3,30.00,SSE,153,1.0,6.0,53,0.00,,,0.00,WUHU216DAVISVP2,2013-06-05 17:38:00,
2013-06-05 13:43:00,80.3,61.8,30.00,ESE,104,0.0,6.0,53,0.00,,,0.00,WUHU216DAVISVP2,2013-06-05 17:43:00,
2013-06-05 13:48:00,80.7,64.3,29.99,SSW,213,0.0,9.0,57,0.00,,,0.00,WUHU216DAVISVP2,2013-06-05 17:48:00,
2013-06-05 13:53:00,81.1,60.8,29.99,SSE,164,0.0,9.0,50,0.00,,,0.00,WUHU216DAVISVP2,2013-06-05 17:53:00,
2013-06-05 13:58:00,81.1,60.1,29.99,WNW,286,3.0,9.0,49,0.00,,,0.00,WUHU216DAVISVP2,2013-06-05 17:58:00,
2013-06-05 14:03:00,80.8,61.0,29.99,SW,228,3.0,9.0,51,0.00,,,0.00,WUHU216DAVISVP2,2013-06-05 18:03:00,
2013-06-05 14:08:00,81.0,62.3,29.99,SSE,149,2.0,8.0,53,0.00,,,0.00,WUHU216DAVISVP2,2013-06-05 18:08:00,
2013-06-05 14:13:00,81.0,61.9,29.99,East,84,8.0,9.0,52,0.00,,,0.00,WUHU216DAVISVP2,2013-06-05 18:13:00,
2013-06-05 14:18:00,80.2,61.1,29.99,SSE,151,1.0,9.0,52,0.00,,,0.00,WUHU216DAVISVP2,2013-06-05 18:18:00,
2013-06-05 14:23:00,79.6,60.6,29.99,East,99,0.0,9.0,52,0.00,,,0.00,WUHU216DAVISVP2,2013-06-05 18:23:00,
2013-06-05 14:28:00,79.7,61.2,29.98,WSW,246,1.0,9.0,53,0.00,,,0.00,WUHU216DAVISVP2,2013-06-05 18:28:00,
2013-06-05 14:33:00,80.2,61.1,29.99,SSW,205,0.0,9.0,52,0.00,,,0.00,WUHU216DAVISVP2,2013-06-05 18:33:00,
2013-06-05 14:38:00,80.2,61.5,29.99,SE,145,1.0,8.0,53,0.00,,,0.00,WUHU216DAVISVP2,2013-06-05 18:38:00,
2013-06-05 14:43:00,80.1,62.5,29.99,East,95,0.0,6.0,55,0.00,,,0.00,WUHU216DAVISVP2,2013-06-05 18:43:00,
2013-06-05 14:48:00,80.3,62.7,29.99,SSE,159,0.0,6.0,55,0.00,,,0.00,WUHU216DAVISVP2,2013-06-05 18:48:00,
2013-06-05 14:53:00,80.4,61.9,29.99,ESE,122,0.0,6.0,53,0.00,,,0.00,WUHU216DAVISVP2,2013-06-05 18:53:00,
2013-06-05 14:58:00,80.9,63.4,29.99,ESE,120,1.0,5.0,55,0.00,,,0.00,WUHU216DAVISVP2,2013-06-05 18:58:00,
2013-06-05 15:03:00,81.1,62.0,29.99,SSE,154,2.0,6.0,52,0.00,,,0.00,WUHU216DAVISVP2,2013-06-05 19:03:00,
2013-06-05 15:08:00,80.9,61.8,29.99,South,170,4.0,6.0,52,0.00,,,0.00,WUHU216DAVISVP2,2013-06-05 19:08:00,
2013-06-05 15:13:00,80.9,62.9,29.99,South,187,2.0,6.0,54,0.00,,,0.00,WUHU216DAVISVP2,2013-06-05 19:13:00,
2013-06-05 15:18:00,80.8,61.1,29.99,SSW,210,6.0,6.0,51,0.00,,,0.00,WUHU216DAVISVP2,2013-06-05 19:18:00,
2013-06-05 15:23:00,80.2,61.0,29.99,South,190,1.0,6.0,52,0.00,,,0.00,WUHU216DAVISVP2,2013-06-05 19:23:00,
2013-06-05 15:28:00,79.7,62.1,29.99,South,170,0.0,9.0,55,0.00,,,0.00,WUHU216DAVISVP2,2013-06-05 19:28:00,
2013-06-05 15:33:00,79.5,61.4,29.99,South,189,2.0,9.0,54,0.00,,,0.00,WUHU216DAVISVP2,2013-06-05 19:33:00,
2013-06-05 15:38:00,79.5,60.9,29.99,SW,214,1.0,9.0,53,0.00,,,0.00,WUHU216DAVISVP2,2013-06-05 19:38:00,
2013-06-05 15:43:00,79.6,61.7,29.99,ESE,123,3.0,8.0,54,0.00,,,0.00,WUHU216DAVISVP2,2013-06-05 19:43:00,
2013-06-05 15:48:00,79.8,62.9,29.99,ENE,74,3.0,8.0,56,0.00,,,0.00,WUHU216DAVISVP2,2013-06-05 19:48:00,
2013-06-05 15:53:00,80.0,63.1,29.98,SSW,209,0.0,8.0,56,0.00,,,0.00,WUHU216DAVISVP2,2013-06-05 19:53:00,
2013-06-05 15:58:00,79.8,61.3,29.98,SE,131,4.0,11.0,53,0.00,,,0.00,WUHU216DAVISVP2,2013-06-05 19:58:00,
2013-06-05 16:03:00,79.4,62.0,29.98,SE,134,0.0,13.0,55,0.00,,,0.00,WUHU216DAVISVP2,2013-06-05 20:03:00,
2013-06-05 16:08:00,79.9,63.0,29.98,SSE,160,1.0,13.0,56,0.00,,,0.00,WUHU216DAVISVP2,2013-06-05 20:08:00,
2013-06-05 16:13:00,79.7,62.3,29.99,East,89,5.0,12.0,55,0.00,,,0.00,WUHU216DAVISVP2,2013-06-05 20:13:00,
2013-06-05 16:18:00,79.5,63.1,29.98,SE,132,0.0,12.0,57,0.00,,,0.00,WUHU216DAVISVP2,2013-06-05 20:18:00,
2013-06-05 16:23:00,79.3,61.4,29.98,ESE,104,2.0,9.0,54,0.00,,,0.00,WUHU216DAVISVP2,2013-06-05 20:23:00,
2013-06-05 16:28:00,78.9,61.5,29.98,ESE,115,5.0,11.0,55,0.00,,,0.00,WUHU216DAVISVP2,2013-06-05 20:28:00,
2013-06-05 16:33:00,78.6,62.3,29.99,SE,125,4.0,11.0,57,0.00,,,0.00,WUHU216DAVISVP2,2013-06-05 20:33:00,
2013-06-05 16:38:00,78.3,61.5,29.99,ESE,122,1.0,11.0,56,0.00,,,0.00,WUHU216DAVISVP2,2013-06-05 20:38:00,
2013-06-05 16:43:00,77.8,61.3,29.99,East,79,2.0,11.0,57,0.00,,,0.00,WUHU216DAVISVP2,2013-06-05 20:43:00,
2013-06-05 16:48:00,77.4,61.0,29.99,East,97,3.0,8.0,57,0.00,,,0.00,WUHU216DAVISVP2,2013-06-05 20:48:00,
2013-06-05 16:53:00,77.0,61.6,29.99,East,97,3.0,9.0,59,0.00,,,0.00,WUHU216DAVISVP2,2013-06-05 20:53:00,
2013-06-05 16:58:00,76.9,62.0,29.98,SSE,160,2.0,9.0,60,0.00,,,0.00,WUHU216DAVISVP2,2013-06-05 20:58:00,
2013-06-05 17:03:00,77.1,61.4,29.98,ESE,122,5.0,11.0,58,0.00,,,0.00,WUHU216DAVISVP2,2013-06-05 21:03:00,
2013-06-05 17:08:00,77.3,61.1,29.98,South,175,3.0,11.0,57,0.00,,,0.00,WUHU216DAVISVP2,2013-06-05 21:08:00,
2013-06-05 17:13:00,76.9,61.2,29.98,South,177,0.0,11.0,58,0.00,,,0.00,WUHU216DAVISVP2,2013-06-05 21:13:00,
2013-06-05 17:18:00,76.6,61.4,29.99,SSW,194,2.0,11.0,59,0.00,,,0.00,WUHU216DAVISVP2,2013-06-05 21:18:00,
2013-06-05 17:23:00,76.2,61.0,29.98,SE,145,5.0,11.0,59,0.00,,,0.00,WUHU216DAVISVP2,2013-06-05 21:23:00,
2013-06-05 17:28:00,75.9,60.7,29.98,SE,135,3.0,11.0,59,0.00,,,0.00,WUHU216DAVISVP2,2013-06-05 21:28:00,
2013-06-05 17:33:00,75.7,61.0,29.98,ESE,117,0.0,11.0,60,0.00,,,0.00,WUHU216DAVISVP2,2013-06-05 21:33:00,
2013-06-05 17:38:00,75.3,60.2,29.98,SE,127,1.0,8.0,59,0.00,,,0.00,WUHU216DAVISVP2,2013-06-05 21:38:00,
2013-06-05 17:43:00,75.0,59.9,29.98,ESE,108,0.0,8.0,59,0.00,,,0.00,WUHU216DAVISVP2,2013-06-05 21:43:00,
2013-06-05 17:48:00,74.8,60.7,29.98,South,184,0.0,8.0,61,0.00,,,0.00,WUHU216DAVISVP2,2013-06-05 21:48:00,
2013-06-05 17:53:00,74.7,61.0,29.97,SSE,156,1.0,8.0,62,0.00,,,0.00,WUHU216DAVISVP2,2013-06-05 21:53:00,
2013-06-05 17:58:00,74.4,60.3,29.97,SE,132,2.0,14.0,61,0.00,,,0.00,WUHU216DAVISVP2,2013-06-05 21:58:00,
2013-06-05 18:03:00,74.3,60.2,29.97,East,89,6.0,14.0,61,0.00,,,0.00,WUHU216DAVISVP2,2013-06-05 22:03:00,
2013-06-05 18:08:00,74.2,60.6,29.97,South,185,1.0,14.0,62,0.00,,,0.00,WUHU216DAVISVP2,2013-06-05 22:08:00,
2013-06-05 18:13:00,74.3,60.6,29.96,ESE,102,0.0,14.0,62,0.00,,,0.00,WUHU216DAVISVP2,2013-06-05 22:13:00,
2013-06-05 18:18:00,74.8,60.9,29.96,East,82,0.0,10.0,62,0.00,,,0.00,WUHU216DAVISVP2,2013-06-05 22:18:00,
2013-06-05 18:23:00,75.3,60.9,29.96,SE,144,0.0,7.0,61,0.00,,,0.00,WUHU216DAVISVP2,2013-06-05 22:23:00,
2013-06-05 18:28:00,75.9,61.0,29.96,South,186,0.0,7.0,60,0.00,,,0.00,WUHU216DAVISVP2,2013-06-05 22:28:00,
2013-06-05 18:33:00,76.2,60.5,29.96,SE,135,0.0,10.0,58,0.00,,,0.00,WUHU216DAVISVP2,2013-06-05 22:33:00,
2013-06-05 18:38:00,76.1,60.9,29.96,SE,144,0.0,10.0,59,0.00,,,0.00,WUHU216DAVISVP2,2013-06-05 22:38:00,
2013-06-05 18:43:00,75.8,60.2,29.96,SSW,209,3.0,10.0,58,0.00,,,0.00,WUHU216DAVISVP2,2013-06-05 22:43:00,
2013-06-05 18:48:00,75.6,60.5,29.96,East,98,0.0,10.0,59,0.00,,,0.00,WUHU216DAVISVP2,2013-06-05 22:48:00,
2013-06-05 18:53:00,75.3,60.2,29.96,South,181,0.0,5.0,59,0.00,,,0.00,WUHU216DAVISVP2,2013-06-05 22:53:00,
2013-06-05 18:58:00,75.2,60.6,29.96,ENE,72,4.0,5.0,60,0.00,,,0.00,WUHU216DAVISVP2,2013-06-05 22:58:00,
2013-06-05 19:03:00,75.1,60.5,29.95,SE,127,3.0,6.0,60,0.00,,,0.00,WUHU216DAVISVP2,2013-06-05 23:03:00,
2013-06-05 19:08:00,74.8,60.2,29.95,ENE,73,2.0,6.0,60,0.00,,,0.00,WUHU216DAVISVP2,2013-06-05 23:08:00,
2013-06-05 19:13:00,74.5,59.4,29.96,ESE,102,1.0,10.0,59,0.00,,,0.00,WUHU216DAVISVP2,2013-06-05 23:13:00,
2013-06-05 19:18:00,74.2,60.1,29.96,ESE,122,0.0,10.0,61,0.00,,,0.00,WUHU216DAVISVP2,2013-06-05 23:18:00,
2013-06-05 19:23:00,74.0,59.9,29.96,ENE,73,4.0,10.0,61,0.00,,,0.00,WUHU216DAVISVP2,2013-06-05 23:23:00,
2013-06-05 19:28:00,73.9,59.8,29.95,SSE,149,0.0,10.0,61,0.00,,,0.00,WUHU216DAVISVP2,2013-06-05 23:28:00,
2013-06-05 19:33:00,74.0,59.4,29.95,East,91,0.0,9.0,60,0.00,,,0.00,WUHU216DAVISVP2,2013-06-05 23:33:00,
2013-06-05 19:38:00,74.1,60.5,29.96,East,91,0.0,9.0,62,0.00,,,0.00,WUHU216DAVISVP2,2013-06-05 23:38:00,
2013-06-05 19:43:00,74.4,59.8,29.95,East,91,0.0,5.0,60,0.00,,,0.00,WUHU216DAVISVP2,2013-06-05 23:43:00,
2013-06-05 19:48:00,74.4,59.8,29.95,ESE,102,1.0,4.0,60,0.00,,,0.00,WUHU216DAVISVP2,2013-06-05 23:48:00,
2013-06-05 19:53:00,74.3,60.2,29.95,SE,129,0.0,4.0,61,0.00,,,0.00,WUHU216DAVISVP2,2013-06-05 23:53:00,
2013-06-05 19:58:00,74.0,59.4,29.95,ESE,103,0.0,4.0,60,0.00,,,0.00,WUHU216DAVISVP2,2013-06-05 23:58:00,
2013-06-05 20:03:00,73.6,60.0,29.95,ESE,109,0.0,8.0,62,0.00,,,0.00,WUHU216DAVISVP2,2013-06-06 00:03:00,
2013-06-05 20:08:00,73.1,59.5,29.95,SSE,148,1.0,12.0,62,0.00,,,0.00,WUHU216DAVISVP2,2013-06-06 00:08:00,
2013-06-05 20:13:00,72.8,59.2,29.95,ESE,115,0.0,12.0,62,0.00,,,0.00,WUHU216DAVISVP2,2013-06-06 00:13:00,
2013-06-05 20:18:00,72.5,58.9,29.95,SSE,158,1.0,12.0,62,0.00,,,0.00,WUHU216DAVISVP2,2013-06-06 00:18:00,
2013-06-05 20:23:00,72.2,59.1,29.95,ENE,76,1.0,12.0,63,0.00,,,0.00,WUHU216DAVISVP2,2013-06-06 00:23:00,
2013-06-05 20:28:00,71.9,58.8,29.96,West,278,0.0,7.0,63,0.00,,,0.00,WUHU216DAVISVP2,2013-06-06 00:28:00,
2013-06-05 20:33:00,71.7,59.1,29.96,East,85,0.0,7.0,64,0.00,,,0.00,WUHU216DAVISVP2,2013-06-06 00:33:00,
2013-06-05 20:38:00,71.5,59.3,29.96,SSE,157,2.0,6.0,65,0.00,,,0.00,WUHU216DAVISVP2,2013-06-06 00:38:00,
2013-06-05 20:43:00,71.2,59.0,29.96,SSW,205,0.0,6.0,65,0.00,,,0.00,WUHU216DAVISVP2,2013-06-06 00:43:00,
2013-06-05 20:48:00,71.0,58.8,29.95,North,4,0.0,5.0,65,0.00,,,0.00,WUHU216DAVISVP2,2013-06-06 00:48:00,
2013-06-05 20:53:00,70.9,59.2,29.95,ESE,114,0.0,4.0,66,0.00,,,0.00,WUHU216DAVISVP2,2013-06-06 00:53:00,
2013-06-05 20:58:00,70.7,59.0,29.96,SSW,196,0.0,7.0,66,0.00,,,0.00,WUHU216DAVISVP2,2013-06-06 00:58:00,
2013-06-05 21:03:00,70.6,59.3,29.96,South,170,0.0,7.0,67,0.00,,,0.00,WUHU216DAVISVP2,2013-06-06 01:03:00,
2013-06-05 21:08:00,70.4,59.5,29.95,ESE,112,0.0,7.0,68,0.00,,,0.00,WUHU216DAVISVP2,2013-06-06 01:08:00,
2013-06-05 21:13:00,70.1,59.2,29.95,East,89,2.0,8.0,68,0.00,,,0.00,WUHU216DAVISVP2,2013-06-06 01:13:00,
2013-06-05 21:18:00,70.0,59.1,29.95,SSE,158,0.0,8.0,68,0.00,,,0.00,WUHU216DAVISVP2,2013-06-06 01:18:00,
2013-06-05 21:23:00,69.9,59.4,29.96,SSE,159,0.0,8.0,69,0.00,,,0.00,WUHU216DAVISVP2,2013-06-06 01:23:00,
2013-06-05 21:28:00,69.7,59.3,29.96,SSE,160,0.0,8.0,69,0.00,,,0.00,WUHU216DAVISVP2,2013-06-06 01:28:00,
2013-06-05 21:33:00,69.3,59.3,29.96,SSE,160,0.0,2.0,70,0.00,,,0.00,WUHU216DAVISVP2,2013-06-06 01:33:00,
2013-06-05 21:38:00,69.0,59.4,29.96,SSE,160,0.0,2.0,71,0.00,,,0.00,WUHU216DAVISVP2,2013-06-06 01:38:00,
2013-06-05 21:43:00,68.6,59.4,29.96,SSE,160,0.0,2.0,72,0.00,,,0.00,WUHU216DAVISVP2,2013-06-06 01:43:00,
2013-06-05 21:48:00,68.2,59.0,29.96,ENE,73,1.0,2.0,72,0.00,,,0.00,WUHU216DAVISVP2,2013-06-06 01:48:00,
2013-06-05 21:53:00,68.0,59.5,29.95,SSE,157,1.0,2.0,74,0.00,,,0.00,WUHU216DAVISVP2,2013-06-06 01:53:00,
2013-06-05 21:58:00,67.9,59.4,29.96,WNW,289,0.0,3.0,74,0.00,,,0.00,WUHU216DAVISVP2,2013-06-06 01:58:00,
2013-06-05 22:03:00,67.6,59.2,29.96,WNW,288,0.0,3.0,74,0.00,,,0.00,WUHU216DAVISVP2,2013-06-06 02:03:00,
2013-06-05 22:08:00,67.2,59.1,29.95,NW,326,0.0,3.0,75,0.00,,,0.00,WUHU216DAVISVP2,2013-06-06 02:08:00,
2013-06-05 22:13:00,66.8,59.1,29.96,WSW,257,0.0,3.0,76,0.00,,,0.00,WUHU216DAVISVP2,2013-06-06 02:13:00,
2013-06-05 22:18:00,66.4,59.1,29.96,East,81,2.0,3.0,77,0.00,,,0.00,WUHU216DAVISVP2,2013-06-06 02:18:00,
2013-06-05 22:23:00,66.1,59.1,29.96,NE,46,0.0,3.0,78,0.00,,,0.00,WUHU216DAVISVP2,2013-06-06 02:23:00,
2013-06-05 22:28:00,65.9,58.9,29.96,NE,46,0.0,3.0,78,0.00,,,0.00,WUHU216DAVISVP2,2013-06-06 02:28:00,
2013-06-05 22:33:00,65.7,59.1,29.96,WNW,287,0.0,3.0,79,0.00,,,0.00,WUHU216DAVISVP2,2013-06-06 02:33:00,
2013-06-05 22:38:00,65.6,59.3,29.96,WNW,287,0.0,3.0,80,0.00,,,0.00,WUHU216DAVISVP2,2013-06-06 02:38:00,
2013-06-05 22:43:00,65.5,59.2,29.96,WNW,287,0.0,3.0,80,0.00,,,0.00,WUHU216DAVISVP2,2013-06-06 02:43:00,
2013-06-05 22:48:00,65.4,59.5,29.96,WNW,301,2.0,3.0,81,0.00,,,0.00,WUHU216DAVISVP2,2013-06-06 02:48:00,
2013-06-05 22:53:00,65.3,59.7,29.96,WSW,249,0.0,2.0,82,0.00,,,0.00,WUHU216DAVISVP2,2013-06-06 02:53:00,
2013-06-05 22:58:00,65.1,59.5,29.96,West,279,1.0,3.0,82,0.00,,,0.00,WUHU216DAVISVP2,2013-06-06 02:58:00,
2013-06-05 23:03:00,65.0,59.4,29.96,NW,311,2.0,3.0,82,0.00,,,0.00,WUHU216DAVISVP2,2013-06-06 03:03:00,
2013-06-05 23:08:00,64.9,59.3,29.96,NW,311,2.0,3.0,82,0.00,,,0.00,WUHU216DAVISVP2,2013-06-06 03:08:00,
2013-06-05 23:13:00,64.8,59.2,29.96,NW,311,0.0,2.0,82,0.00,,,0.00,WUHU216DAVISVP2,2013-06-06 03:13:00,
2013-06-05 23:18:00,64.7,59.5,29.96,NW,311,0.0,2.0,83,0.00,,,0.00,WUHU216DAVISVP2,2013-06-06 03:18:00,
2013-06-05 23:23:00,64.5,59.3,29.96,NW,314,0.0,4.0,83,0.00,,,0.00,WUHU216DAVISVP2,2013-06-06 03:23:00,
2013-06-05 23:28:00,64.4,59.2,29.96,NW,314,0.0,4.0,83,0.00,,,0.00,WUHU216DAVISVP2,2013-06-06 03:28:00,
2013-06-05 23:33:00,64.4,59.2,29.96,NW,314,0.0,4.0,83,0.00,,,0.00,WUHU216DAVISVP2,2013-06-06 03:33:00,
2013-06-05 23:38:00,64.4,59.5,29.96,NW,314,0.0,4.0,84,0.00,,,0.00,WUHU216DAVISVP2,2013-06-06 03:38:00,
2013-06-05 23:43:00,64.3,59.4,29.96,NW,314,0.0,3.0,84,0.00,,,0.00,WUHU216DAVISVP2,2013-06-06 03:43:00,
2013-06-05 23:48:00,64.3,59.4,29.97,NW,314,0.0,2.0,84,0.00,,,0.00,WUHU216DAVISVP2,2013-06-06 03:48:00,
2013-06-05 23:53:00,64.3,59.4,29.97,NW,314,0.0,2.0,84,0.00,,,0.00,WUHU216DAVISVP2,2013-06-06 03:53:00,
2013-06-05 23:58:00,64.2,59.3,29.97,NW,314,0.0,2.0,84,0.00,,,0.00,WUHU216DAVISVP2,2013-06-06 03:58:00,